| time (UTC) | temp F | wind direction | speed MPH | gust MPH | rain 1hr in | rain 24hr in | rain mn in | humidity % | barometer mb |
| 20260505223953 | 83 | 171 | 9.0 | 11.0 | 0.00 | 0.00 | 0.00 | 67 | 1005.2 |
| 20260505223450 | 84 | 173 | 6.0 | 8.0 | 0.00 | 0.00 | 0.00 | 68 | 1005.1 |
| 20260505222946 | 84 | 190 | 2.0 | 8.0 | 0.00 | 0.00 | 0.00 | 68 | 1005.2 |
| 20260505222443 | 83 | 169 | 6.0 | 11.0 | 0.00 | 0.00 | 0.00 | 68 | 1005.1 |
| 20260505221938 | 83 | 170 | 5.0 | 11.0 | 0.00 | 0.00 | 0.00 | 68 | 1005.1 |
| 20260505221436 | 84 | 204 | 1.0 | 8.0 | 0.00 | 0.00 | 0.00 | 68 | 1005.2 |
| 20260505220933 | 82 | 150 | 4.0 | 8.0 | 0.00 | 0.00 | 0.00 | 70 | 1005.1 |
| 20260505220430 | 83 | 185 | 4.0 | 7.0 | 0.00 | 0.00 | 0.00 | 69 | 1005.2 |
| 20260505215928 | 83 | 165 | 7.0 | 10.0 | 0.00 | 0.00 | 0.00 | 67 | 1005.3 |
| 20260505215426 | 84 | 171 | 7.0 | 9.0 | 0.00 | 0.00 | 0.00 | 66 | 1005.5 |
| 20260505214923 | 84 | 155 | 5.0 | 10.0 | 0.00 | 0.00 | 0.00 | 67 | 1005.1 |
| 20260505214421 | 84 | 165 | 3.0 | 14.0 | 0.00 | 0.00 | 0.00 | 68 | 1005.2 |
| 20260505213918 | 83 | 162 | 9.0 | 12.0 | 0.00 | 0.00 | 0.00 | 67 | 1005.2 |
| 20260505213416 | 82 | 147 | 4.0 | 8.0 | 0.00 | 0.00 | 0.00 | 68 | 1005.1 |
| 20260505212912 | 82 | 147 | 6.0 | 8.0 | 0.00 | 0.00 | 0.00 | 69 | 1005.4 |
| 20260505212409 | 82 | 161 | 5.0 | 9.0 | 0.00 | 0.00 | 0.00 | 68 | 1005.5 |
| 20260505211905 | 82 | 221 | 4.0 | 9.0 | 0.00 | 0.00 | 0.00 | 68 | 1005.5 |
| 20260505211403 | 82 | 162 | 6.0 | 6.0 | 0.00 | 0.00 | 0.00 | 68 | 1005.5 |
| 20260505210859 | 82 | 179 | 4.0 | 9.0 | 0.00 | 0.00 | 0.00 | 68 | 1005.6 |
| 20260505210356 | 82 | 161 | 3.0 | 10.0 | 0.00 | 0.00 | 0.00 | 67 | 1005.7 |
| 20260505205852 | 85 | 151 | 11.0 | 12.0 | 0.00 | 0.00 | 0.00 | 65 | 1005.6 |
| 20260505205351 | 84 | 12 | 3.0 | 6.0 | 0.00 | 0.00 | 0.00 | 66 | 1005.5 |
| 20260505204847 | 85 | 104 | 2.0 | 10.0 | 0.00 | 0.00 | 0.00 | 65 | 1005.5 |
| 20260505204345 | 85 | 149 | 6.0 | 8.0 | 0.00 | 0.00 | 0.00 | 67 | 1005.5 |
| 20260505203842 | 84 | 198 | 2.0 | 10.0 | 0.00 | 0.00 | 0.00 | 65 | 1005.5 |
| 20260505203338 | 84 | 156 | 4.0 | 6.0 | 0.00 | 0.00 | 0.00 | 66 | 1005.5 |
| 20260505202835 | 83 | 214 | 6.0 | 10.0 | 0.00 | 0.00 | 0.00 | 67 | 1005.6 |
| 20260505202331 | 81 | 162 | 6.0 | 14.0 | 0.00 | 0.00 | 0.00 | 69 | 1005.7 |
| 20260505201828 | 81 | 149 | 9.0 | 17.0 | 0.00 | 0.00 | 0.00 | 69 | 1005.8 |
| 20260505201326 | 82 | 175 | 5.0 | 14.0 | 0.00 | 0.00 | 0.00 | 68 | 1005.8 |
| 20260505200824 | 82 | 139 | 9.0 | 12.0 | 0.00 | 0.00 | 0.00 | 70 | 1005.8 |
| 20260505200320 | 82 | 196 | 4.0 | 10.0 | 0.00 | 0.00 | 0.00 | 70 | 1005.8 |
| 20260505195815 | 82 | 185 | 5.0 | 10.0 | 0.00 | 0.00 | 0.00 | 69 | 1006.0 |
| 20260505195314 | 82 | 199 | 4.0 | 13.0 | 0.00 | 0.00 | 0.00 | 70 | 1005.7 |
| 20260505194810 | 82 | 147 | 12.0 | 14.0 | 0.00 | 0.00 | 0.00 | 68 | 1005.7 |
| 20260505194308 | 81 | 183 | 4.0 | 10.0 | 0.00 | 0.00 | 0.00 | 69 | 1005.8 |
| 20260505193803 | 82 | 206 | 3.0 | 7.0 | 0.00 | 0.00 | 0.00 | 70 | 1006.0 |
| 20260505193301 | 81 | 144 | 5.0 | 5.0 | 0.00 | 0.00 | 0.00 | 70 | 1005.8 |
| 20260505192759 | 80 | 163 | 5.0 | 14.0 | 0.00 | 0.00 | 0.00 | 70 | 1005.9 |
| 20260505192256 | 81 | 149 | 3.0 | 12.0 | 0.00 | 0.00 | 0.00 | 70 | 1006.0 |
| 20260505191754 | 80 | 158 | 7.0 | 10.0 | 0.00 | 0.00 | 0.00 | 70 | 1005.9 |
| 20260505191252 | 80 | 191 | 3.0 | 14.0 | 0.00 | 0.00 | 0.00 | 70 | 1006.2 |
| 20260505190748 | 79 | 188 | 5.0 | 12.0 | 0.00 | 0.00 | 0.00 | 71 | 1006.0 |
| 20260505190243 | 80 | 153 | 6.0 | 12.0 | 0.00 | 0.00 | 0.00 | 70 | 1006.1 |
| 20260505185740 | 80 | 115 | 3.0 | 14.0 | 0.00 | 0.00 | 0.00 | 71 | 1005.9 |
| 20260505185237 | 80 | 155 | 6.0 | 11.0 | 0.00 | 0.00 | 0.00 | 71 | 1005.8 |
| 20260505184732 | 80 | 170 | 6.0 | 14.0 | 0.00 | 0.00 | 0.00 | 71 | 1005.8 |
| 20260505184230 | 80 | 174 | 5.0 | 16.0 | 0.00 | 0.00 | 0.00 | 70 | 1005.9 |
| 20260505183727 | 80 | 163 | 4.0 | 17.0 | 0.00 | 0.00 | 0.00 | 71 | 1005.9 |
| 20260505183224 | 80 | 173 | 4.0 | 12.0 | 0.00 | 0.00 | 0.00 | 71 | 1005.8 |
| 20260505182720 | 80 | 157 | 6.0 | 7.0 | 0.00 | 0.00 | 0.00 | 70 | 1005.8 |
| 20260505182218 | 80 | 248 | 4.0 | 9.0 | 0.00 | 0.00 | 0.00 | 69 | 1005.8 |
| 20260505181714 | 81 | 162 | 12.0 | 15.0 | 0.00 | 0.00 | 0.00 | 68 | 1006.0 |
| 20260505181212 | 81 | 267 | 3.0 | 7.0 | 0.00 | 0.00 | 0.00 | 69 | 1005.8 |
| 20260505180708 | 81 | 172 | 7.0 | 13.0 | 0.00 | 0.00 | 0.00 | 69 | 1005.8 |
| 20260505180205 | 80 | 171 | 5.0 | 18.0 | 0.00 | 0.00 | 0.00 | 70 | 1005.8 |
| 20260505175700 | 79 | 182 | 7.0 | 16.0 | 0.00 | 0.00 | 0.00 | 71 | 1005.7 |
| 20260505175157 | 79 | 157 | 8.0 | 22.0 | 0.00 | 0.00 | 0.00 | 70 | 1005.8 |
| 20260505174654 | 79 | 164 | 7.0 | 14.0 | 0.00 | 0.00 | 0.00 | 70 | 1006.1 |
| 20260505174150 | 80 | 168 | 7.0 | 12.0 | 0.00 | 0.00 | 0.00 | 70 | 1005.9 |
| 20260505173647 | 79 | 172 | 10.0 | 14.0 | 0.00 | 0.00 | 0.00 | 70 | 1006.2 |
| 20260505173144 | 79 | 155 | 10.0 | 14.0 | 0.00 | 0.00 | 0.00 | 70 | 1006.2 |
| 20260505172641 | 78 | 167 | 9.0 | 18.0 | 0.00 | 0.00 | 0.00 | 72 | 1006.2 |
| 20260505172138 | 79 | 167 | 6.0 | 19.0 | 0.00 | 0.00 | 0.00 | 70 | 1006.1 |
| 20260505171637 | 78 | 156 | 7.0 | 13.0 | 0.00 | 0.00 | 0.00 | 73 | 1006.4 |
| 20260505171135 | 78 | 173 | 7.0 | 13.0 | 0.00 | 0.00 | 0.00 | 71 | 1006.7 |
| 20260505170632 | 78 | 147 | 6.0 | 14.0 | 0.00 | 0.00 | 0.00 | 73 | 1006.8 |
| 20260505170128 | 77 | 166 | 10.0 | 15.0 | 0.00 | 0.00 | 0.00 | 72 | 1006.8 |
| 20260505165623 | 77 | 185 | 8.0 | 10.0 | 0.00 | 0.00 | 0.00 | 73 | 1006.7 |
| 20260505165120 | 77 | 168 | 9.0 | 14.0 | 0.00 | 0.00 | 0.00 | 73 | 1006.4 |
| 20260505164615 | 77 | 179 | 8.0 | 16.0 | 0.00 | 0.00 | 0.00 | 73 | 1006.3 |
| 20260505164113 | 77 | 174 | 8.0 | 16.0 | 0.00 | 0.00 | 0.00 | 73 | 1006.4 |
| 20260505163612 | 77 | 158 | 7.0 | 17.0 | 0.00 | 0.00 | 0.00 | 75 | 1006.0 |
| 20260505163109 | 77 | 161 | 9.0 | 18.0 | 0.00 | 0.00 | 0.00 | 73 | 1006.1 |
| 20260505162606 | 77 | 166 | 3.0 | 12.0 | 0.00 | 0.00 | 0.00 | 74 | 1006.0 |
| 20260505162104 | 76 | 220 | 2.0 | 9.0 | 0.00 | 0.00 | 0.00 | 76 | 1005.9 |
| 20260505161600 | 76 | 180 | 7.0 | 17.0 | 0.00 | 0.00 | 0.00 | 75 | 1006.0 |
| 20260505161058 | 76 | 185 | 8.0 | 14.0 | 0.00 | 0.00 | 0.00 | 76 | 1005.9 |
| 20260505160555 | 76 | 165 | 9.0 | 15.0 | 0.00 | 0.00 | 0.00 | 78 | 1005.8 |
| 20260505153032 | 75 | 179 | 8.0 | 15.0 | 0.00 | 0.00 | 0.00 | 77 | 1006.3 |
| 20260505152529 | 74 | 171 | 7.0 | 12.0 | 0.00 | 0.00 | 0.00 | 78 | 1006.1 |
| 20260505152025 | 74 | 165 | 9.0 | 16.0 | 0.00 | 0.00 | 0.00 | 78 | 1006.0 |
| 20260505151520 | 73 | 226 | 5.0 | 13.0 | 0.00 | 0.00 | 0.00 | 79 | 1006.2 |
| 20260505151017 | 74 | 173 | 5.0 | 17.0 | 0.00 | 0.00 | 0.00 | 78 | 1006.0 |
| 20260505150514 | 74 | 177 | 7.0 | 9.0 | 0.00 | 0.00 | 0.00 | 80 | 1005.9 |
| 20260505140439 | 71 | 166 | 5.0 | 13.0 | 0.00 | 0.00 | 0.00 | 82 | 1006.2 |
| 20260505124852 | 70 | 176 | 2.0 | 12.0 | 0.00 | 0.00 | 0.00 | 84 | 1006.0 |
| 20260505124349 | 70 | 167 | 4.0 | 13.0 | 0.00 | 0.00 | 0.00 | 84 | 1005.9 |
| 20260505123845 | 70 | 154 | 7.0 | 15.0 | 0.00 | 0.00 | 0.00 | 84 | 1005.7 |
| 20260505123342 | 70 | 181 | 5.0 | 13.0 | 0.00 | 0.00 | 0.00 | 84 | 1005.9 |
| 20260505122838 | 70 | 148 | 6.0 | 10.0 | 0.00 | 0.00 | 0.00 | 84 | 1005.9 |
| 20260505122336 | 70 | 143 | 7.0 | 16.0 | 0.00 | 0.00 | 0.00 | 84 | 1005.7 |
| 20260505121832 | 70 | 179 | 6.0 | 10.0 | 0.00 | 0.00 | 0.00 | 84 | 1005.6 |
| 20260505121329 | 70 | 168 | 8.0 | 17.0 | 0.00 | 0.00 | 0.00 | 84 | 1005.6 |
| 20260505120825 | 70 | 164 | 5.0 | 11.0 | 0.00 | 0.00 | 0.00 | 84 | 1005.7 |
| 20260505120321 | 70 | 148 | 11.0 | 17.0 | 0.00 | 0.00 | 0.00 | 84 | 1005.4 |
| 20260505115820 | 70 | 139 | 7.0 | 12.0 | 0.00 | 0.00 | 0.00 | 83 | 1005.3 |
| 20260505115317 | 70 | 148 | 8.0 | 14.0 | 0.00 | 0.00 | 0.00 | 83 | 1005.4 |
| 20260505114815 | 70 | 159 | 6.0 | 9.0 | 0.00 | 0.00 | 0.00 | 83 | 1005.4 |
| 20260505114311 | 70 | 126 | 5.0 | 16.0 | 0.00 | 0.00 | 0.00 | 83 | 1005.4 |
| 20260505113808 | 70 | 137 | 10.0 | 14.0 | 0.00 | 0.00 | 0.00 | 83 | 1005.1 |
| 20260505113304 | 70 | 151 | 5.0 | 10.0 | 0.00 | 0.00 | 0.00 | 83 | 1005.1 |
| 20260505112800 | 70 | 160 | 4.0 | 15.0 | 0.00 | 0.00 | 0.00 | 83 | 1005.1 |
| 20260505112258 | 70 | 147 | 10.0 | 14.0 | 0.00 | 0.00 | 0.00 | 83 | 1005.3 |
| 20260505111758 | 70 | 172 | 7.0 | 15.0 | 0.00 | 0.00 | 0.00 | 83 | 1005.3 |
| 20260505111254 | 70 | 154 | 7.0 | 15.0 | 0.00 | 0.00 | 0.00 | 82 | 1005.2 |
| 20260505110750 | 70 | 171 | 4.0 | 15.0 | 0.00 | 0.00 | 0.00 | 83 | 1005.5 |
| 20260505110248 | 70 | 176 | 9.0 | 14.0 | 0.00 | 0.00 | 0.00 | 82 | 1005.2 |
| 20260505101722 | 70 | 168 | 8.0 | 18.0 | 0.00 | 0.00 | 0.00 | 82 | 1005.6 |
| 20260505101218 | 70 | 138 | 9.0 | 13.0 | 0.00 | 0.00 | 0.00 | 82 | 1005.6 |
| 20260505100715 | 70 | 173 | 3.0 | 10.0 | 0.00 | 0.00 | 0.00 | 82 | 1005.7 |
| 20260505100212 | 70 | 163 | 8.0 | 11.0 | 0.00 | 0.00 | 0.00 | 82 | 1005.5 |
| 20260505095707 | 70 | 155 | 8.0 | 13.0 | 0.00 | 0.00 | 0.00 | 82 | 1005.5 |
| 20260505095205 | 70 | 139 | 8.0 | 17.0 | 0.00 | 0.00 | 0.00 | 82 | 1005.5 |
| 20260505094700 | 70 | 168 | 4.0 | 15.0 | 0.00 | 0.00 | 0.00 | 82 | 1005.6 |
| 20260505094157 | 70 | 152 | 3.0 | 17.0 | 0.00 | 0.00 | 0.00 | 82 | 1005.6 |
| 20260505093653 | 70 | 139 | 9.0 | 12.0 | 0.00 | 0.00 | 0.00 | 82 | 1005.4 |
| 20260505093151 | 70 | 149 | 6.0 | 11.0 | 0.00 | 0.00 | 0.00 | 82 | 1005.4 |
| 20260505092648 | 70 | 151 | 11.0 | 16.0 | 0.00 | 0.00 | 0.00 | 82 | 1005.6 |
| 20260505092147 | 70 | 174 | 6.0 | 17.0 | 0.00 | 0.00 | 0.00 | 82 | 1005.7 |
| 20260505091643 | 70 | 159 | 9.0 | 14.0 | 0.00 | 0.00 | 0.00 | 82 | 1005.5 |
| 20260505091141 | 70 | 153 | 6.0 | 11.0 | 0.00 | 0.00 | 0.00 | 82 | 1005.8 |
| 20260505090638 | 70 | 171 | 4.0 | 16.0 | 0.00 | 0.00 | 0.00 | 82 | 1005.6 |
| 20260505090137 | 70 | 149 | 3.0 | 13.0 | 0.00 | 0.00 | 0.00 | 82 | 1005.7 |
| 20260505085634 | 70 | 164 | 9.0 | 16.0 | 0.00 | 0.00 | 0.00 | 82 | 1005.8 |
| 20260505085132 | 70 | 139 | 10.0 | 14.0 | 0.00 | 0.00 | 0.00 | 82 | 1005.3 |
| 20260505084629 | 70 | 166 | 7.0 | 16.0 | 0.00 | 0.00 | 0.00 | 82 | 1005.5 |
| 20260505084128 | 70 | 151 | 5.0 | 15.0 | 0.00 | 0.00 | 0.00 | 82 | 1005.5 |
| 20260505083625 | 70 | 156 | 6.0 | 16.0 | 0.00 | 0.00 | 0.00 | 82 | 1005.3 |
| 20260505083121 | 70 | 169 | 13.0 | 15.0 | 0.00 | 0.00 | 0.00 | 82 | 1005.5 |
| 20260505082617 | 70 | 149 | 8.0 | 15.0 | 0.00 | 0.00 | 0.00 | 82 | 1005.3 |
| 20260505082114 | 69 | 149 | 13.0 | 14.0 | 0.00 | 0.00 | 0.00 | 82 | 1005.6 |
| 20260505081610 | 70 | 158 | 9.0 | 15.0 | 0.00 | 0.00 | 0.00 | 82 | 1005.7 |
| 20260505081108 | 70 | 174 | 7.0 | 15.0 | 0.00 | 0.00 | 0.00 | 81 | 1005.8 |
| 20260505080603 | 70 | 177 | 9.0 | 17.0 | 0.00 | 0.00 | 0.00 | 81 | 1005.9 |
| 20260505080101 | 70 | 168 | 8.0 | 14.0 | 0.00 | 0.00 | 0.00 | 81 | 1006.1 |
| 20260505075556 | 70 | 154 | 6.0 | 13.0 | 0.00 | 0.00 | 0.00 | 81 | 1005.9 |
| 20260505075053 | 70 | 155 | 7.0 | 16.0 | 0.00 | 0.00 | 0.00 | 81 | 1006.1 |
| 20260505074550 | 70 | 155 | 5.0 | 18.0 | 0.00 | 0.00 | 0.00 | 80 | 1006.1 |
| 20260505074047 | 70 | 143 | 10.0 | 14.0 | 0.00 | 0.00 | 0.00 | 80 | 1006.0 |
| 20260505073544 | 70 | 141 | 8.0 | 15.0 | 0.00 | 0.00 | 0.00 | 80 | 1006.0 |
| 20260505073044 | 70 | 144 | 12.0 | 13.0 | 0.00 | 0.00 | 0.00 | 80 | 1006.1 |
| 20260505072538 | 70 | 144 | 5.0 | 14.0 | 0.00 | 0.00 | 0.00 | 79 | 1006.1 |
| 20260505072035 | 70 | 143 | 8.0 | 14.0 | 0.00 | 0.00 | 0.00 | 79 | 1006.0 |
| 20260505071530 | 70 | 151 | 4.0 | 12.0 | 0.00 | 0.00 | 0.00 | 79 | 1006.2 |
| 20260505071029 | 70 | 165 | 7.0 | 21.0 | 0.00 | 0.00 | 0.00 | 78 | 1006.0 |
| 20260505070526 | 71 | 143 | 13.0 | 18.0 | 0.00 | 0.00 | 0.00 | 78 | 1006.1 |
| 20260505070022 | 71 | 156 | 8.0 | 17.0 | 0.00 | 0.00 | 0.00 | 78 | 1006.2 |
| 20260505065518 | 71 | 171 | 7.0 | 13.0 | 0.00 | 0.00 | 0.00 | 78 | 1006.2 |
| 20260505065014 | 71 | 152 | 9.0 | 12.0 | 0.00 | 0.00 | 0.00 | 78 | 1006.4 |
| 20260505064511 | 71 | 152 | 9.0 | 11.0 | 0.00 | 0.00 | 0.00 | 77 | 1006.4 |
| 20260505064010 | 71 | 160 | 4.0 | 13.0 | 0.00 | 0.00 | 0.00 | 77 | 1006.6 |
| 20260505063507 | 71 | 164 | 4.0 | 14.0 | 0.00 | 0.00 | 0.00 | 76 | 1006.7 |
| 20260505063008 | 71 | 178 | 6.0 | 13.0 | 0.00 | 0.00 | 0.00 | 76 | 1006.8 |
| 20260505062505 | 71 | 161 | 6.0 | 20.0 | 0.00 | 0.00 | 0.00 | 76 | 1006.7 |
| 20260505062002 | 71 | 165 | 5.0 | 15.0 | 0.00 | 0.00 | 0.00 | 76 | 1006.5 |
| 20260505061500 | 71 | 146 | 9.0 | 18.0 | 0.00 | 0.00 | 0.00 | 75 | 1006.6 |
| 20260505060957 | 71 | 167 | 8.0 | 14.0 | 0.00 | 0.00 | 0.00 | 75 | 1006.9 |
| 20260505060454 | 71 | 144 | 11.0 | 16.0 | 0.00 | 0.00 | 0.00 | 75 | 1006.6 |
| 20260505055950 | 71 | 131 | 5.0 | 13.0 | 0.00 | 0.00 | 0.00 | 75 | 1006.7 |
| 20260505055446 | 72 | 221 | 6.0 | 14.0 | 0.00 | 0.00 | 0.00 | 74 | 1006.7 |
| 20260505054943 | 72 | 178 | 9.0 | 14.0 | 0.00 | 0.00 | 0.00 | 74 | 1006.7 |
| 20260505054441 | 72 | 154 | 7.0 | 17.0 | 0.00 | 0.00 | 0.00 | 74 | 1006.7 |
| 20260505053938 | 72 | 169 | 8.0 | 17.0 | 0.00 | 0.00 | 0.00 | 73 | 1006.9 |
| 20260505053435 | 72 | 151 | 10.0 | 17.0 | 0.00 | 0.00 | 0.00 | 74 | 1007.0 |
| 20260505052932 | 72 | 181 | 8.0 | 17.0 | 0.00 | 0.00 | 0.00 | 73 | 1006.9 |
| 20260505052429 | 72 | 172 | 13.0 | 18.0 | 0.00 | 0.00 | 0.00 | 73 | 1006.9 |
| 20260505051926 | 72 | 141 | 14.0 | 16.0 | 0.00 | 0.00 | 0.00 | 73 | 1007.0 |
| 20260505051423 | 72 | 140 | 7.0 | 16.0 | 0.00 | 0.00 | 0.00 | 73 | 1007.1 |
| 20260505050921 | 72 | 140 | 9.0 | 15.0 | 0.00 | 0.00 | 0.00 | 73 | 1007.0 |
| 20260505050420 | 72 | 172 | 6.0 | 15.0 | 0.00 | 0.00 | 0.00 | 73 | 1007.1 |
| 20260505041347 | 72 | 144 | 7.0 | 11.0 | 0.00 | 0.00 | 0.00 | 71 | 1007.4 |
| 20260505040844 | 72 | 140 | 8.0 | 13.0 | 0.00 | 0.00 | 0.00 | 71 | 1007.6 |
| 20260505040342 | 71 | 172 | 6.0 | 10.0 | 0.00 | 0.00 | 0.00 | 71 | 1007.6 |
| 20260505035838 | 72 | 123 | 6.0 | 11.0 | 0.00 | 0.00 | 0.00 | 71 | 1007.4 |
| 20260505035334 | 72 | 139 | 5.0 | 14.0 | 0.00 | 0.00 | 0.00 | 70 | 1007.5 |
| 20260505034832 | 72 | 134 | 15.0 | 15.0 | 0.00 | 0.00 | 0.00 | 70 | 1007.4 |
| 20260505034328 | 71 | 160 | 6.0 | 9.0 | 0.00 | 0.00 | 0.00 | 71 | 1007.7 |
| 20260505033825 | 72 | 164 | 8.0 | 12.0 | 0.00 | 0.00 | 0.00 | 70 | 1007.5 |
| 20260505033322 | 72 | 150 | 7.0 | 9.0 | 0.00 | 0.00 | 0.00 | 70 | 1007.7 |
| 20260505032820 | 71 | 142 | 9.0 | 12.0 | 0.00 | 0.00 | 0.00 | 70 | 1007.5 |
| 20260505032316 | 71 | 138 | 10.0 | 12.0 | 0.00 | 0.00 | 0.00 | 70 | 1007.6 |
| 20260505031814 | 72 | 140 | 5.0 | 14.0 | 0.00 | 0.00 | 0.00 | 69 | 1007.7 |
| 20260505031310 | 72 | 140 | 5.0 | 11.0 | 0.00 | 0.00 | 0.00 | 69 | 1007.8 |
| 20260505030807 | 72 | 127 | 9.0 | 10.0 | 0.00 | 0.00 | 0.00 | 69 | 1007.7 |
| 20260505030303 | 72 | 119 | 6.0 | 10.0 | 0.00 | 0.00 | 0.00 | 69 | 1007.9 |
| 20260505025758 | 72 | 128 | 6.0 | 10.0 | 0.00 | 0.00 | 0.00 | 68 | 1007.8 |
| 20260505025256 | 72 | 153 | 3.0 | 10.0 | 0.00 | 0.00 | 0.00 | 68 | 1007.5 |
| 20260505024754 | 72 | 147 | 6.0 | 9.0 | 0.00 | 0.00 | 0.00 | 67 | 1007.7 |
| 20260505024252 | 73 | 127 | 6.0 | 13.0 | 0.00 | 0.00 | 0.00 | 67 | 1007.6 |
| 20260505023749 | 72 | 146 | 7.0 | 11.0 | 0.00 | 0.00 | 0.00 | 67 | 1007.5 |
| 20260505023246 | 72 | 158 | 5.0 | 10.0 | 0.00 | 0.00 | 0.00 | 68 | 1007.3 |
| 20260505022743 | 72 | 167 | 6.0 | 11.0 | 0.00 | 0.00 | 0.00 | 67 | 1007.5 |
| 20260505022240 | 72 | 159 | 5.0 | 14.0 | 0.00 | 0.00 | 0.00 | 68 | 1007.5 |
| 20260505021737 | 72 | 154 | 4.0 | 12.0 | 0.00 | 0.00 | 0.00 | 68 | 1007.5 |
| 20260505021234 | 72 | 134 | 8.0 | 11.0 | 0.00 | 0.00 | 0.00 | 68 | 1007.5 |
| 20260505020729 | 72 | 149 | 6.0 | 10.0 | 0.00 | 0.00 | 0.00 | 68 | 1007.4 |
| 20260505020225 | 72 | 134 | 5.0 | 10.0 | 0.00 | 0.00 | 0.00 | 67 | 1007.5 |
| 20260505015723 | 72 | 145 | 5.0 | 9.0 | 0.00 | 0.00 | 0.00 | 67 | 1007.5 |
| 20260505015219 | 72 | 152 | 5.0 | 8.0 | 0.00 | 0.00 | 0.00 | 67 | 1007.8 |
| 20260505014716 | 73 | 141 | 7.0 | 11.0 | 0.00 | 0.00 | 0.00 | 66 | 1007.6 |
| 20260505014214 | 73 | 150 | 5.0 | 7.0 | 0.00 | 0.00 | 0.00 | 66 | 1007.7 |
| 20260505013710 | 73 | 148 | 4.0 | 7.0 | 0.00 | 0.00 | 0.00 | 66 | 1007.4 |
| 20260505013207 | 73 | 140 | 9.0 | 10.0 | 0.00 | 0.00 | 0.00 | 65 | 1007.5 |
| 20260505012706 | 73 | 143 | 2.0 | 7.0 | 0.00 | 0.00 | 0.00 | 65 | 1007.7 |
| 20260505012203 | 73 | 162 | 5.0 | 10.0 | 0.00 | 0.00 | 0.00 | 64 | 1007.6 |
| 20260505011658 | 74 | 144 | 5.0 | 9.0 | 0.00 | 0.00 | 0.00 | 64 | 1007.3 |
| 20260505011155 | 74 | 151 | 8.0 | 9.0 | 0.00 | 0.00 | 0.00 | 63 | 1007.4 |
| 20260505010651 | 74 | 163 | 6.0 | 8.0 | 0.00 | 0.00 | 0.00 | 63 | 1007.6 |
| 20260505010143 | 74 | 173 | 5.0 | 10.0 | 0.00 | 0.00 | 0.00 | 63 | 1007.4 |
| 20260505005639 | 74 | 165 | 3.0 | 9.0 | 0.00 | 0.00 | 0.00 | 63 | 1007.5 |
| 20260505005136 | 74 | 181 | 6.0 | 11.0 | 0.00 | 0.00 | 0.00 | 62 | 1007.4 |
| 20260505004633 | 75 | 143 | 4.0 | 9.0 | 0.00 | 0.00 | 0.00 | 62 | 1007.5 |
| 20260505004129 | 75 | 141 | 4.0 | 10.0 | 0.00 | 0.00 | 0.00 | 61 | 1007.5 |
| 20260505003627 | 75 | 183 | 7.0 | 14.0 | 0.00 | 0.00 | 0.00 | 60 | 1007.4 |
| 20260505003124 | 75 | 119 | 5.0 | 9.0 | 0.00 | 0.00 | 0.00 | 60 | 1007.7 |
| 20260505002620 | 75 | 132 | 8.0 | 10.0 | 0.00 | 0.00 | 0.00 | 60 | 1007.5 |
| 20260505002118 | 76 | 115 | 6.0 | 7.0 | 0.00 | 0.00 | 0.00 | 59 | 1007.4 |
| 20260505001615 | 76 | 126 | 5.0 | 10.0 | 0.00 | 0.00 | 0.00 | 59 | 1007.6 |
| 20260505001113 | 76 | 168 | 5.0 | 9.0 | 0.00 | 0.00 | 0.00 | 58 | 1007.6 |
| 20260505000610 | 76 | 140 | 7.0 | 14.0 | 0.00 | 0.00 | 0.00 | 57 | 1007.3 |
| 20260505000108 | 77 | 146 | 8.0 | 14.0 | 0.00 | 0.00 | 0.00 | 56 | 1007.4 |
| 20260504235604 | 77 | 168 | 6.0 | 12.0 | 0.00 | 0.00 | 0.00 | 56 | 1007.6 |
| 20260504235101 | 77 | 187 | 6.0 | 13.0 | 0.00 | 0.00 | 0.00 | 56 | 1007.7 |
| 20260504234558 | 77 | 170 | 4.0 | 6.0 | 0.00 | 0.00 | 0.00 | 55 | 1007.5 |
| 20260504234055 | 77 | 135 | 8.0 | 11.0 | 0.00 | 0.00 | 0.00 | 55 | 1007.7 |
| 20260504233550 | 78 | 167 | 5.0 | 7.0 | 0.00 | 0.00 | 0.00 | 54 | 1007.9 |
| 20260504233047 | 78 | 180 | 12.0 | 17.0 | 0.00 | 0.00 | 0.00 | 53 | 1008.1 |
| 20260504232544 | 78 | 150 | 8.0 | 22.0 | 0.00 | 0.00 | 0.00 | 53 | 1007.8 |
| 20260504232042 | 78 | 167 | 7.0 | 18.0 | 0.00 | 0.00 | 0.00 | 52 | 1007.9 |
| 20260504231538 | 79 | 162 | 6.0 | 10.0 | 0.00 | 0.00 | 0.00 | 52 | 1008.2 |
| 20260504231034 | 79 | 191 | 8.0 | 12.0 | 0.00 | 0.00 | 0.00 | 51 | 1008.3 |
| 20260504230530 | 79 | 164 | 5.0 | 11.0 | 0.00 | 0.00 | 0.00 | 52 | 1008.1 |
| 20260504230030 | 78 | 185 | 4.0 | 15.0 | 0.00 | 0.00 | 0.00 | 51 | 1008.2 |
| 20260504225526 | 79 | 143 | 13.0 | 14.0 | 0.00 | 0.00 | 0.00 | 50 | 1008.2 |
| 20260504225023 | 79 | 172 | 10.0 | 13.0 | 0.00 | 0.00 | 0.00 | 50 | 1008.3 |
| 20260504224520 | 79 | 143 | 9.0 | 12.0 | 0.00 | 0.00 | 0.00 | 52 | 1008.3 |